Location: Banff
(51.1667°N, 115.5667°W)
Time: 10:06:44
(UTC+00:00)

SR - Pass Details

Date: 05 December 2020
Orbit: 575 x 880 km, 66.7° (Epoch: 19 January)

Event Time Altitude Azimuth Distance (km) Brightness Sun altitude
Rises 01:23:59 0° 223° (SW) 2,834 ? -15.9°
Reaches altitude 10° 01:26:10 10° 225° (SW) 1,964 ? -16.3°
Maximum altitude 01:30:34 71° 310° (NW) 683 ? -16.9°
Enters shadow 01:33:35 22° 31° (NNE) 1,452 ? -17.4°
